Moab, UT

11:56 PM MST on January 22, 2018 (GMT -0700)
Canyonlands

Weather History for KCNY - July, 2012

Change the Weather History Date:

Thursday, July 26, 2012

  Actual Average Record
Temperature  
Mean Temperature 81 °F 81 °F  
Max Temperature 100 °F 96 °F 107 °F (1960)
Min Temperature 61 °F 66 °F 53 °F (1928)
Degree Days  
Heating Degree Days 0 0  
Month to date heating degree days 0 0  
Since 1 June heating degree days 2 17  
Since 1 July heating degree days 0 0  
Cooling Degree Days 16 16  
Month to date cooling degree days 422 395  
Year to date cooling degree days 884 714  
Since 1 June cooling degree days 800 650  
Growing Degree Days 31 (Base 50)    
Moisture  
Dew Point 35 °F    
Average Humidity 26    
Maximum Humidity 43    
Minimum Humidity 8    
Precipitation  
Precipitation 0.00 in 0.03 in 0.38 in (2004)
Month to date precipitation 0.28 0.67  
Year to date precipitation 0.93 4.37  
Sea Level Pressure  
Sea Level Pressure 29.81 in    
Wind  
Wind Speed 3 mph (SW)    
Max Wind Speed 13 mph    
Max Gust Speed 16 mph    
Visibility 10 miles    
Events      
T = Trace of Precipitation, MM = Missing Value Source: NWS Daily Summary

Daily Weather History Graph

Daily Weather History Graph

Search for Another Location

Airport or City:

Trip Planner

Search our weather history database for the weather conditions in past years. The results will help you decide how hot, cold, wet, or windy it might be!

Date:

Astronomy

Jul. 26, 2012 Rise Set
Actual Time 6:15 AM MDT 8:34 PM MDT
Civil Twilight 5:45 AM MDT 9:04 PM MDT
Nautical Twilight 5:08 AM MDT 9:41 PM MDT
Astronomical Twilight 4:27 AM MDT 10:22 PM MDT
Moon 2:26 PM MDT (7/26) 12:08 AM MDT (7/26)
Length of Visible Light 15h 19m
Length of Day
14h 19m
First Quarter, 54% of the Moon is Illuminated
Jul 26
First Quarter
Aug 1
Full
Aug 9
Last Quarter
Aug 17
New
Aug 24
First Quarter

Hourly Weather History & Observations

Time (MDT) Temp. Dew Point Humidity Pressure Visibility Wind Dir Wind Speed Gust Speed Precip Events Conditions
12:53 AM 73.0 °F 39.9 °F 30% 29.81 in 10.0 mi WSW 4.6 mph - N/A   Clear
1:53 AM 72.0 °F 42.1 °F 34% 29.80 in 10.0 mi Calm Calm - N/A   Clear
2:53 AM 73.0 °F 43.0 °F 34% 29.80 in 10.0 mi Calm Calm - N/A   Clear
3:53 AM 73.0 °F 43.0 °F 34% 29.80 in 10.0 mi West 4.6 mph - N/A   Clear
4:53 AM 68.0 °F 41.0 °F 37% 29.82 in 10.0 mi Calm Calm - N/A   Clear
5:53 AM 66.9 °F 41.0 °F 39% 29.84 in 10.0 mi West 4.6 mph - N/A   Clear
6:53 AM 63.0 °F 39.9 °F 43% 29.87 in 10.0 mi Calm Calm - N/A   Clear
7:53 AM 75.0 °F 42.1 °F 31% 29.87 in 10.0 mi Calm Calm - N/A   Clear
8:53 AM 79.0 °F 42.1 °F 27% 29.90 in 10.0 mi SE 5.8 mph - N/A   Clear
9:53 AM 84.9 °F 39.9 °F 20% 29.88 in 10.0 mi ENE 3.5 mph - N/A   Clear
10:53 AM 89.1 °F 39.9 °F 18% 29.88 in 10.0 mi Calm Calm - N/A   Clear
11:53 AM 90.0 °F 39.0 °F 17% 29.85 in 10.0 mi SSW 3.5 mph - N/A   Clear
12:53 PM 96.1 °F 35.1 °F 12% 29.85 in 10.0 mi Variable 5.8 mph - N/A   Clear
1:53 PM 98.1 °F 28.9 °F 9% 29.83 in 10.0 mi NNE 11.5 mph - N/A   Clear
2:53 PM 97.0 °F 28.0 °F 9% 29.81 in 10.0 mi Variable 4.6 mph - N/A   Clear
3:53 PM 97.0 °F 28.9 °F 9% 29.80 in 10.0 mi ESE 4.6 mph - N/A   Clear
4:53 PM 99.0 °F 28.9 °F 8% 29.77 in 10.0 mi North 9.2 mph - N/A   Clear
5:53 PM 98.1 °F 28.9 °F 9% 29.75 in 10.0 mi Calm Calm - N/A   Clear
6:53 PM 96.1 °F 28.9 °F 9% 29.75 in 10.0 mi South 4.6 mph - N/A   Clear
7:53 PM 96.1 °F 28.0 °F 9% 29.73 in 10.0 mi Calm Calm - N/A   Clear
8:53 PM 91.0 °F 28.0 °F 10% 29.74 in 10.0 mi Calm Calm - N/A   Clear
9:53 PM 82.0 °F 27.0 °F 13% 29.76 in 10.0 mi Calm Calm - N/A   Clear
10:53 PM 80.1 °F 28.9 °F 15% 29.77 in 10.0 mi West 5.8 mph - N/A   Clear
11:53 PM 78.1 °F 28.0 °F 16% 29.77 in 10.0 mi Calm Calm - N/A   Clear